Tracking 31027 objects as of 19-Jul-2025
HD Live streaming from Space Station
objects crossing your sky now

DMSP 5D-2 F12 DEB

Track DMSP 5D-2 F12 DEB now!
10-day predictions


NORAD ID: 23250
Int'l Code: 1994-057D
Perigee: 623.7 km
Apogee: 630.3 km
Inclination: 98.1 °
Period: 97.1 minutes
Semi major axis: 6997 km
RCS: 0.0787 m2 (small)
Launch date: August 29, 1994
Source: United States (US)
Launch site: AIR FORCE WESTERN TEST RANGE (AFWTR)

Note: This is SATELLITE DEBRIS
Your satellite tracking list
ATLAS 5 CENTAUR DEB
Track 1 satellite(s)




NASA's NSSDC Master Catalog

Two Line Element Set (TLE):
1 23250U 94057D   25199.36796126  .00012069  00000-0  14892-2 0  9997
2 23250  98.0819 231.4103 0004726 158.1194 212.8060 14.83008610618130
Source of the keplerian elements: AFSPC